Accueil
METAR-TAF:

METAR-TAF

Aéroports :

Ephrata Municipal Airport

Ephrata, Washington, États-Unis

latitude: 47-18-27N, longitude: 119-30-57W, altitude: 389 m

Observation

Le bulletin a été fait il y a 44 minutes, à 17:53 UTC
Vent 10 kt de sud-ouest
Température 19°C
Humidité 43%
Pression 1017 hPa
Visibilité: 16.1 km
Ciel clair

METAR: KEPH 231753Z AUTO 23010KT 10SM CLR 19/06 A3004 RMK AO2 SLP171 T01890056 10189 20100 55009

Heure: 11:37 (18:37 UTC)


TAF: absent

Observations et prévisions météorologiques de plus de 4000 aéroports (messages METAR et TAF).

Les stations disponibles sont représentées par des disques jaunes et rouges sur la carte.

Passer la souris dessus pour voir le nom de la station.

Cliquer dessus pour voir les observations et prévisions météorologiques.

Pour changer de carte: cliquez sur les boutons verts avec une croix noire pour zoomer, sur le bouton vert avec un tiret pour effectuer un zoom arrière, ou sur les flèches vertes pour les cartes adjacentes.


METAR-TAF: